135  
ASUS41 KBOX 212000  
RWRBOX  
 
REGIONAL WEATHER ROUNDUP  
NATIONAL WEATHER SERVICE BOSTON/NORTON MA  
400 PM EDT SAT SEP 21 2019  
 
NOTE: "FAIR" INDICATES FEW OR NO CLOUDS BELOW 12,000 FEET WITH NO  
SIGNIFICANT WEATHER AND/OR S TO VISIBILITY
.  
 
MAZALL-212100-  
EASTERN MASSACHUSETTS  
 
CITY SKY/WX TMP DP RH WIND PRES REMARKS
 
BOSTON FAIR 75 57 53 E16 30.14S  
BEVERLY FAIR 77 59 53 SE7 30.14S  
LAWRENCE FAIR 83 58 42 NW5 30.15S  
BEDFORD FAIR 86 59 39 SW7 30.13S  
BLUE HILL NOT AVBL  
NORWOOD FAIR 85 58 39 NW7 30.14S  
MARSHFIELD NOT AVBL  
PLYMOUTH FAIR 80 59 48 E8 30.15S  
TAUNTON FAIR 84 58 40 VRB3 30.13F  
NEW BEDFORD FAIR 79 58 48 S9 30.15S  

 
 
MAZALL-212100-  
CAPE COD AND THE ISLANDS  
 
CITY SKY/WX TMP DP RH WIND PRES REMARKS
 
FALMOUTH SUNNY 79 59 50 S7 30.16S  
HYANNIS NOT AVBL  
CHATHAM FAIR 77 59 53 VRB6 30.17S  
PROVINCETOWN FAIR 75 59 57 NE6 30.16F  
NANTUCKET FAIR 73 58 59 SE7 30.17S  
MARTHAS VNYRD FAIR 75 55 49 S8 30.16F  

 
 
MAZALL-212100-  
CENTRAL AND WESTERN MASSACHUSETTS  
 
CITY SKY/WX TMP DP RH WIND PRES REMARKS
 
WORCESTER FAIR 79 59 50 SW6 30.18F  
FITCHBURG FAIR 84 59 42 VRB3 30.14F  
ORANGE FAIR 84 58 40 W8 30.16F  
SPRINGFIELD MOSUNNY 84 58 41 S3 30.13F  
WESTFIELD FAIR 83 56 39 S3 30.14F  
NORTH ADAMS FAIR 81 32 17 VRB5 30.14F  
PITTSFIELD FAIR 80 58 46 W7 30.17F  

 
 
RIZALL-212100-  
RHODE ISLAND  
 
CITY SKY/WX TMP DP RH WIND PRES REMARKS
 
PROVIDENCE FAIR 80 56 43 S9 30.16S  
NEWPORT FAIR 76 52 43 S8 30.16F  
BLOCK ISLAND FAIR N/A N/A N/A VRB3 30.18S  
SMITHFIELD FAIR 80 61 52 NW3 30.16F  
WESTERLY FAIR 79 54 41 W7 30.17S  

 
 
CTZALL-212100-  
CONNECTICUT  
 
CITY SKY/WX TMP DP RH WIND PRES REMARKS
 
BRADLEY INTL FAIR 83 59 44 VRB3 30.14F  
HARTFORD FAIR 83 57 41 S5 30.13F  
BRIDGEPORT FAIR 77 55 46 SW7 30.16F  
DANBURY FAIR 82 50 32 CALM 30.17F  
GROTON NOT AVBL  
NEW HAVEN FAIR 79 55 43 S7 30.16F  
CHESTER FAIR 81 57 44 SW6 30.17F  
MERIDEN FAIR 83 51 33 S6 30.14F  
WILLIMANTIC FAIR 83 60 45 NW5 30.16S  
OXFORD FAIR 81 55 40 VRB5 30.18F  

 
 
MEZ002-015-021-024-NHZ003-005-008-011-012-014-VTZ005-008-212100-  
NORTHERN NEW ENGLAND  
 
CITY SKY/WX TMP DP RH WIND PRES REMARKS
 
PORTLAND ME FAIR 76 59 55 S9 30.13F  
BANGOR ME FAIR 77 46 33 W7 30.12F  
CONCORD NH FAIR 83 55 38 S5 30.13F  
MANCHESTER NH FAIR 85 56 37 VRB5 30.12S  
NASHUA NH FAIR 85 58 39 W6 30.13F  
PORTSMOUTH NH MOSUNNY 78 58 51 S10 30.12F  
JAFFREY NH FAIR 81 57 43 S6 30.18S  
KEENE NH FAIR 81 59 47 CALM 30.16S  
BURLINGTON VT FAIR 82 56 40 VRB3 30.14F  
MT. WASHINGTON PTSUNNY 54 48 82 NW8 N/A  

 
 
NYZ052-076-212100-  
EASTERN NEW YORK  
 
CITY SKY/WX TMP DP RH WIND PRES REMARKS
 
ALBANY FAIR 82 54 37 S6 30.15F  
NEW YORK CITY FAIR 84 49 29 NE8 30.15F  

 
 
ANZALL-212100-  
MARINE OBSERVATIONS  
 
STATION/POSITION TIME TEMP WIND PRES VSBY WAVE
 
AIR SEA DIR/SP/G HT/PER  
(UTC) (F) (DEG/KT/KT) (MB) (MI) (FT/S)  
BOSTON BUOY 1850 69 67 90/ 6/ 8 1019.9 4/ 9  
BUZZARDS BAY 1900 68 220/ 6/ 6 1022.1F  
NANTUCKET SOUND 1940 68 1021.5  
MASS BAY-STELLWA 1904 69 66 140/ 4/ 6 1020.7F 1 7/8 4/11  
ISLE OF SHOALS 1900 68 130/ 10/ 11 1020.4F  
S OF BLOCK IS 1930 68 N/A 4/13  

 
   
.....................KEY......................
 
 
SKY/WX - SKY CONDITION/PRESENT WEATHER  
TMP - TEMPERATURE IN FAHRENHEIT  
DWPT - DEWPOINT IN FAHRENHEIT  
RH - RELATIVE HUMIDITY IN PERCENT  
WIND - DIRECTION AND SPEED IN MPH  
PRES - MEAN SEA LEVEL PRESSURE IN INCHES OF HG  
WCI - WIND CHILL INDEX  
VSB - VISIBILITY IN MILES  
HX - HEAT INDEX  
TC - TEMPERATURE IN CELSIUS  
VRB - VARIABLE WIND DIRECTION  
N/A - NOT AVAILABLE  
 
 
CLICK HERE TO GO TO PREVIOUS BULLETINS.

The Nexlab MA Page
The Nexlab RI Page
The Nexlab NH Page
The Nexlab CT Page Main Text Page